Tracking 23731 objects as of 27-Sep-2021
HD Live streaming from Space Station
objects crossing your sky now

XJS H

Track XJS H now!
10-day predictions


NORAD ID: 45612
Int'l Code: 2020-032B
Perigee: 476.9 km
Apogee: 485.7 km
Inclination: 35.0 °
Period: 94.1 minutes
Semi major axis: 6852 km
RCS: Unknown
Launch date: May 29, 2020
Source: People's Republic of China (PRC)
Launch site: Xichang Space Center, China (XSC)
aabbcc
Your satellite tracking list
Your tracking list is empty




NASA's NSSDC Master Catalog

Two Line Element Set (TLE):
1 45612U 20032B   21269.66616046  .00004005  00000-0  13333-3 0  9995
2 45612  35.0368 330.6121 0006458 173.3396 324.9573 15.30560838 74234
Source of the keplerian elements: AFSPC